DL2DHM-13 Weather Reports


Display with metric or nautical units.
time (UTC)temp
F
wind
direction
speed
MPH
gust
MPH
rain 1hr
in
rain 24hr
in
rain mn
in
humidity
%
barometer
mb
20260506212040 47 323 0.0 2.0 0.01 0.84 0.83 94 1008.0
20260506211539 47 324 0.0 2.0 0.01 0.84 0.83 94 1007.9
20260506211039 47 323 0.0 3.0 0.01 0.84 0.83 94 1007.9
20260506210539 47 22 0.0 3.0 0.00 0.83 0.83 94 1007.9
20260506210040 47 22 0.0 3.0 0.00 0.83 0.83 94 1007.8
20260506205538 47 25 0.0 3.0 0.00 0.83 0.83 94 1007.7
20260506205038 47 22 0.0 2.0 0.00 0.83 0.83 94 1007.8
20260506204548 47 22 0.0 1.0 0.00 0.83 0.83 94 1007.8
20260506204038 47 22 0.0 3.0 0.00 0.83 0.83 94 1007.8
20260506203533 47 22 0.0 3.0 0.00 0.83 0.83 94 1007.7
20260506203033 47 22 0.0 3.0 0.00 0.83 0.83 94 1007.7
20260506202533 47 22 1.0 3.0 0.00 0.83 0.83 94 1007.8
20260506202033 47 22 0.0 5.0 0.00 0.83 0.83 94 1007.7
20260506201535 47 22 2.0 5.0 0.00 0.83 0.83 94 1007.7
20260506201031 47 271 0.0 3.0 0.00 0.83 0.83 94 1007.6
20260506200531 47 270 0.0 5.0 0.00 0.83 0.83 94 1007.6
20260506200033 47 333 0.0 5.0 0.00 0.83 0.83 94 1007.6
20260506195530 47 31 0.0 3.0 0.00 0.83 0.83 94 1007.5
20260506195033 47 355 0.0 3.0 0.00 0.83 0.83 94 1007.4
20260506194530 47 328 0.0 2.0 0.00 0.83 0.83 94 1007.5
20260506194029 47 296 0.0 3.0 0.01 0.83 0.83 94 1007.5
20260506193528 47 296 0.0 3.0 0.01 0.83 0.83 94 1007.5
20260506193028 47 311 0.0 3.0 0.01 0.83 0.83 94 1007.4
20260506192528 47 311 0.0 3.0 0.01 0.83 0.83 94 1007.4
20260506192027 47 310 0.0 2.0 0.01 0.83 0.83 94 1007.3
20260506191527 47 310 0.0 2.0 0.01 0.83 0.83 94 1007.2
20260506191025 47 310 0.0 2.0 0.01 0.83 0.83 94 1007.1
20260506190626 47 310 0.0 2.0 0.01 0.83 0.83 94 1007.1
20260506190023 47 309 0.0 2.0 0.01 0.83 0.83 94 1007.1
20260506185523 47 309 0.0 2.0 0.01 0.83 0.83 94 1007.0
20260506185023 47 308 0.0 2.0 0.01 0.83 0.83 93 1006.9
20260506184522 47 309 0.0 3.0 0.01 0.83 0.83 93 1006.8
20260506184022 47 308 1.0 4.0 0.00 0.83 0.82 93 1006.7
20260506183521 47 346 1.0 4.0 0.01 0.83 0.82 93 1006.7
20260506183021 47 38 0.0 3.0 0.01 0.83 0.82 93 1006.7
20260506182519 47 9 1.0 3.0 0.01 0.83 0.82 93 1006.6
20260506182019 47 31 0.0 3.0 0.02 0.83 0.82 94 1006.6
20260506181525 47 31 0.0 3.0 0.02 0.83 0.82 94 1006.6
20260506181021 47 50 0.0 3.0 0.02 0.83 0.82 94 1006.5
20260506180521 47 50 1.0 4.0 0.02 0.83 0.82 93 1006.5
20260506180017 47 18 1.0 5.0 0.02 0.83 0.82 93 1006.5
20260506175516 47 19 2.0 5.0 0.02 0.83 0.82 93 1006.4
20260506175015 48 347 2.0 3.0 0.03 0.83 0.82 93 1006.2
20260506174515 48 346 1.0 3.0 0.03 0.83 0.82 93 1006.2
20260506174020 48 344 1.0 3.0 0.04 0.83 0.82 93 1006.2
20260506173515 48 321 1.0 3.0 0.04 0.82 0.81 93 1006.1
20260506173015 48 35 1.0 3.0 0.05 0.82 0.81 93 1006.1
20260506172514 48 35 1.0 4.0 0.06 0.82 0.81 93 1006.2
20260506172014 48 51 1.0 4.0 0.05 0.81 0.80 93 1006.2
20260506171522 48 37 1.0 3.0 0.06 0.81 0.80 93 1006.1
20260506171114 48 41 1.0 4.0 0.06 0.81 0.80 93 1006.2
20260506170512 48 41 1.0 4.0 0.06 0.81 0.80 93 1006.1
20260506170014 48 16 0.0 1.0 0.06 0.80 0.80 93 1006.1
20260506165512 48 16 0.0 2.0 0.06 0.80 0.80 93 1006.2
20260506165013 48 16 0.0 3.0 0.05 0.80 0.79 93 1006.2
20260506164511 48 16 0.0 4.0 0.04 0.79 0.78 93 1006.1
20260506164013 48 17 2.0 4.0 0.04 0.79 0.78 93 1006.0
20260506163513 48 15 1.0 3.0 0.03 0.78 0.77 93 1006.0
20260506163011 48 13 1.0 3.0 0.03 0.77 0.76 93 1006.0
20260506162512 48 11 0.0 5.0 0.02 0.76 0.76 93 1006.0
20260506162010 48 11 2.0 5.0 0.03 0.76 0.76 94 1006.1
20260506161511 48 324 1.0 3.0 0.03 0.76 0.75 94 1006.1
20260506161010 48 324 1.0 3.0 0.03 0.76 0.75 94 1006.0
20260506160511 48 26 1.0 3.0 0.03 0.75 0.74 94 1006.0
20260506160010 48 27 1.0 4.0 0.04 0.75 0.74 94 1006.0
20260506155508 48 21 1.0 4.0 0.04 0.75 0.74 93 1006.0
20260506155010 48 350 1.0 3.0 0.04 0.75 0.74 93 1006.0
20260506154508 48 19 1.0 3.0 0.05 0.75 0.74 93 1006.0
20260506154007 48 29 0.0 3.0 0.05 0.75 0.74 93 1006.0
20260506153509 48 11 1.0 3.0 0.05 0.75 0.74 93 1006.0
20260506153007 48 11 0.0 3.0 0.04 0.74 0.73 93 1005.9
20260506152508 48 9 1.0 3.0 0.04 0.74 0.73 93 1005.9
20260506152007 48 11 1.0 6.0 0.03 0.73 0.72 93 1005.9
20260506151507 48 5 2.0 6.0 0.02 0.72 0.72 93 1006.0
20260506151010 48 355 2.0 5.0 0.02 0.72 0.72 93 1006.0
20260506150509 48 19 2.0 5.0 0.02 0.72 0.71 93 1006.0
20260506150010 48 355 2.0 5.0 0.01 0.71 0.70 93 1005.9
20260506145505 48 333 1.0 3.0 0.01 0.71 0.70 93 1005.9
20260506145005 49 330 1.0 7.0 0.01 0.71 0.70 93 1005.9
20260506144505 49 20 0.0 3.0 0.00 0.70 0.69 93 1005.9
20260506144005 49 351 0.0 3.0 0.00 0.70 0.69 93 1005.8
20260506143505 49 26 1.0 4.0 0.00 0.70 0.69 93 1005.8
20260506143012 48 26 2.0 4.0 0.00 0.70 0.69 93 1005.7
20260506142503 49 5 2.0 4.0 0.00 0.70 0.69 93 1005.7
20260506142002 48 22 2.0 4.0 0.00 0.70 0.69 93 1005.6
20260506141502 48 30 1.0 4.0 0.00 0.70 0.69 93 1005.7
20260506141002 48 34 2.0 4.0 0.00 0.70 0.69 93 1005.7
20260506140502 48 24 1.0 4.0 0.00 0.70 0.69 93 1005.7
20260506140112 48 15 1.0 5.0 0.00 0.70 0.69 93 1005.8
20260506135600 48 13 2.0 6.0 0.00 0.70 0.69 93 1005.7
20260506135100 48 12 3.0 6.0 0.00 0.70 0.69 93 1005.7
20260506134600 48 355 2.0 4.0 0.00 0.70 0.69 93 1005.7
20260506134500 49 5 2.0 4.0 0.00 0.70 0.69 93 1005.6
20260506134100 48 57 1.0 6.0 0.00 0.70 0.69 93 1005.7
20260506133600 48 27 2.0 6.0 0.00 0.70 0.69 93 1005.7
20260506133101 48 65 2.0 5.0 0.00 0.70 0.69 93 1005.7
20260506132605 48 82 2.0 5.0 0.00 0.70 0.69 93 1005.7
20260506132100 48 32 2.0 5.0 0.00 0.70 0.69 93 1005.6
20260506131601 48 28 2.0 6.0 0.00 0.70 0.69 93 1005.6
20260506131100 48 19 4.0 6.0 0.00 0.70 0.69 93 1005.5
20260506130602 48 13 3.0 6.0 0.00 0.70 0.69 93 1005.5
20260506130133 48 30 2.0 5.0 0.00 0.70 0.69 93 1005.5
20260506125602 48 72 2.0 4.0 0.00 0.70 0.69 94 1005.6
20260506125058 48 32 1.0 4.0 0.00 0.70 0.69 94 1005.6
20260506124558 48 9 1.0 4.0 0.00 0.70 0.69 94 1005.5
20260506124058 48 360 1.0 6.0 0.00 0.70 0.69 94 1005.5
20260506123559 48 19 2.0 5.0 0.01 0.70 0.69 94 1005.4
20260506123058 48 12 2.0 5.0 0.01 0.70 0.69 94 1005.3
20260506122558 48 28 2.0 5.0 0.01 0.70 0.69 94 1005.3
20260506122058 48 298 2.0 5.0 0.01 0.70 0.69 94 1005.3
20260506121557 48 26 3.0 5.0 0.01 0.70 0.69 94 1005.2
20260506121057 48 19 2.0 4.0 0.01 0.70 0.69 94 1005.2
20260506120556 48 26 1.0 4.0 0.02 0.70 0.69 94 1005.2
20260506120059 48 11 2.0 5.0 0.02 0.70 0.69 94 1005.0
20260506115556 48 11 1.0 5.0 0.02 0.70 0.69 94 1005.1
20260506115054 48 5 1.0 5.0 0.02 0.70 0.69 94 1005.0
20260506114556 48 5 1.0 5.0 0.02 0.70 0.69 94 1005.0
20260506114053 47 17 2.0 6.0 0.02 0.70 0.69 94 1004.9
20260506113553 48 13 2.0 6.0 0.02 0.69 0.69 94 1005.0
20260506113103 48 5 2.0 4.0 0.02 0.69 0.69 93 1005.0
20260506112552 48 283 1.0 5.0 0.02 0.69 0.69 93 1005.0
20260506112054 48 17 1.0 3.0 0.02 0.69 0.69 93 1005.1
20260506111553 48 17 1.0 4.0 0.02 0.69 0.69 93 1005.1
20260506111052 48 28 1.0 4.0 0.02 0.69 0.69 94 1005.2
20260506110551 48 35 1.0 5.0 0.01 0.69 0.68 93 1005.1
20260506110059 48 5 1.0 5.0 0.01 0.69 0.68 93 1005.0
20260506105551 48 17 2.0 6.0 0.00 0.68 0.67 93 1005.0
20260506105050 48 5 2.0 6.0 0.01 0.68 0.67 93 1004.9
20260506104605 48 19 3.0 5.0 0.01 0.68 0.67 93 1004.9
20260506104050 48 28 2.0 5.0 0.01 0.68 0.67 93 1004.9
20260506103550 48 27 2.0 7.0 0.01 0.68 0.67 93 1004.9
20260506103051 47 14 4.0 7.0 0.01 0.68 0.67 94 1004.8
20260506102550 47 38 4.0 9.0 0.01 0.68 0.67 94 1004.8
20260506102048 48 28 3.0 6.0 0.02 0.68 0.67 94 1004.8
20260506101556 48 34 3.0 6.0 0.02 0.68 0.67 94 1004.7
20260506101049 47 28 2.0 5.0 0.02 0.68 0.67 94 1004.7
20260506100550 47 9 2.0 6.0 0.02 0.68 0.67 93 1004.6
20260506100048 47 350 3.0 6.0 0.02 0.68 0.67 93 1004.6
20260506095550 47 334 2.0 4.0 0.02 0.68 0.67 93 1004.6
20260506095047 47 360 2.0 5.0 0.01 0.67 0.66 93 1004.6
20260506094555 47 13 2.0 5.0 0.01 0.67 0.66 93 1004.6
20260506094047 47 32 2.0 5.0 0.01 0.67 0.66 94 1004.6
20260506093548 47 60 1.0 6.0 0.01 0.67 0.66 93 1004.5
20260506093053 47 32 2.0 6.0 0.01 0.67 0.66 93 1004.5
20260506092546 47 21 3.0 6.0 0.01 0.67 0.66 93 1004.4
20260506092046 47 20 2.0 6.0 0.00 0.66 0.65 93 1004.4
20260506091545 47 36 3.0 6.0 0.00 0.66 0.65 93 1004.4
20260506091047 47 19 2.0 5.0 0.00 0.66 0.65 93 1004.3
20260506090550 47 73 1.0 4.0 0.00 0.66 0.65 93 1004.3
20260506090045 48 9 2.0 4.0 0.00 0.66 0.65 93 1004.3
20260506085544 47 59 1.0 5.0 0.00 0.66 0.65 93 1004.2
20260506085044 47 18 2.0 6.0 0.00 0.66 0.65 93 1004.1
20260506084548 47 339 2.0 5.0 0.00 0.66 0.65 93 1004.1
20260506084044 47 13 2.0 6.0 0.00 0.66 0.65 93 1004.1
20260506083542 47 16 2.0 8.0 0.00 0.66 0.65 93 1004.0
20260506083041 47 13 3.0 8.0 0.00 0.66 0.65 93 1004.0
20260506082542 47 35 2.0 6.0 0.00 0.66 0.65 93 1004.0
20260506082044 47 28 3.0 7.0 0.00 0.66 0.65 93 1004.0
20260506081539 47 36 4.0 8.0 0.00 0.66 0.65 93 1003.9
20260506081037 47 25 3.0 8.0 0.00 0.66 0.65 93 1003.9
20260506080536 48 15 3.0 6.0 0.00 0.66 0.65 93 1003.9
20260506073035 48 22 2.0 5.0 0.01 0.66 0.65 94 1003.7
20260506072531 48 32 3.0 5.0 0.01 0.66 0.65 94 1003.8
20260506072030 48 32 2.0 5.0 0.02 0.66 0.65 94 1003.8
20260506071530 48 20 2.0 5.0 0.02 0.66 0.65 94 1003.8
20260506071028 48 17 2.0 5.0 0.02 0.66 0.65 94 1003.8
20260506070529 48 42 2.0 6.0 0.02 0.66 0.65 94 1003.7
20260506062022 48 36 1.0 6.0 0.05 0.65 0.64 94 1003.6
20260506061522 48 22 3.0 6.0 0.05 0.65 0.64 94 1003.5
20260506061021 48 28 2.0 5.0 0.06 0.65 0.64 94 1003.5
20260506060524 48 27 2.0 5.0 0.06 0.65 0.64 94 1003.5
20260506051015 49 80 1.0 4.0 0.05 0.59 0.57 94 1003.4
20260506050521 49 44 1.0 5.0 0.06 0.59 0.57 94 1003.4
20260506045011 49 32 2.0 5.0 0.08 0.56 0.56 94 1003.3
20260506044511 49 53 1.0 5.0 0.08 0.56 0.56 94 1003.3
20260506044019 49 111 1.0 6.0 0.09 0.56 0.56 94 1003.3
20260506043510 49 46 2.0 5.0 0.09 0.56 0.56 94 1003.3
20260506043010 49 66 1.0 5.0 0.11 0.56 0.56 94 1003.3
20260506042509 49 70 1.0 5.0 0.11 0.56 0.55 94 1003.3
20260506042012 50 95 1.0 4.0 0.11 0.55 0.54 94 1003.4
20260506041517 50 111 1.0 4.0 0.11 0.54 0.54 94 1003.4
20260506041007 50 107 0.0 4.0 0.11 0.54 0.53 94 1003.4
20260506040510 50 104 1.0 4.0 0.12 0.53 0.52 94 1003.4
20260506040006 50 55 0.0 3.0 0.11 0.51 0.50 94 1003.4
20260506035506 50 77 0.0 4.0 0.11 0.50 0.50 94 1003.4
20260506035006 50 90 1.0 4.0 0.11 0.50 0.49 94 1003.4
20260506034508 50 92 0.0 3.0 0.11 0.49 0.48 94 1003.4
20260506034004 50 69 1.0 4.0 0.11 0.48 0.47 94 1003.4
20260506033505 50 82 1.0 4.0 0.10 0.46 0.46 94 1003.4
20260506033004 50 73 0.0 3.0 0.10 0.46 0.45 94 1003.5
20260506032503 50 73 1.0 4.0 0.10 0.45 0.44 94 1003.5
20260506032003 50 65 1.0 4.0 0.10 0.44 0.43 94 1003.6
20260506031503 50 121 1.0 5.0 0.10 0.43 0.43 94 1003.7
20260506031002 50 122 0.0 2.0 0.10 0.43 0.42 94 1003.7
20260506030501 50 122 0.0 2.0 0.09 0.41 0.40 94 1003.8
20260506030000 50 122 0.0 4.0 0.09 0.40 0.39 94 1003.8
20260506025601 50 122 1.0 4.0 0.09 0.39 0.39 94 1003.9
20260506025100 50 57 1.0 3.0 0.09 0.39 0.38 94 1003.9
20260506024559 50 82 0.0 2.0 0.09 0.38 0.37 93 1004.0
20260506024058 50 82 0.0 2.0 0.09 0.37 0.36 93 1004.0
20260506023558 50 83 0.0 3.0 0.09 0.36 0.35 93 1004.1
20260506023101 50 83 0.0 3.0 0.09 0.35 0.35 94 1004.1
20260506022555 50 94 0.0 3.0 0.09 0.35 0.34 94 1004.1
20260506022054 51 94 0.0 3.0 0.09 0.34 0.33 94 1004.2
20260506021557 51 103 0.0 3.0 0.08 0.33 0.32 94 1004.2
20260506021056 51 103 0.0 2.0 0.08 0.32 0.31 94 1004.3
20260506020553 51 103 0.0 2.0 0.08 0.31 0.31 94 1004.3
20260506020053 51 103 0.0 2.0 0.09 0.31 0.31 94 1004.4
20260506015556 51 103 0.0 1.0 0.08 0.31 0.30 94 1004.3
20260506015053 51 103 0.0 1.0 0.08 0.31 0.28 94 1004.4
20260506014556 51 105 0.0 0.0 0.08 0.30 0.28 94 1004.4
20260506014054 51 105 0.0 0.0 0.07 0.28 0.28 94 1004.4
20260506013552 51 105 0.0 0.0 0.07 0.28 0.27 94 1004.5
20260506013050 51 105 0.0 0.0 0.06 0.28 0.26 93 1004.6
20260506012550 51 105 0.0 0.0 0.06 0.27 0.25 93 1004.6
20260506012050 51 105 0.0 0.0 0.06 0.26 0.24 93 1004.6
20260506011548 51 105 0.0 1.0 0.07 0.26 0.24 93 1004.7
20260506011048 51 105 0.0 2.0 0.07 0.25 0.24 93 1004.7
20260506010550 51 105 0.0 2.0 0.06 0.24 0.23 93 1004.7
20260506010049 51 105 0.0 2.0 0.06 0.24 0.22 93 1004.7
20260506005547 51 105 0.0 2.0 0.07 0.24 0.22 93 1004.8
20260506005047 51 105 0.0 2.0 0.08 0.24 0.21 93 1004.8
20260506004548 51 105 0.0 2.0 0.08 0.23 0.20 93 1004.9
20260506004046 51 105 0.0 4.0 0.09 0.23 0.20 93 1004.8
20260506003546 51 109 1.0 4.0 0.09 0.22 0.20 93 1004.9
20260506003045 51 123 1.0 2.0 0.09 0.22 0.20 93 1004.9
20260506002547 51 121 0.0 4.0 0.09 0.21 0.19 93 1005.0
20260506002045 51 121 1.0 6.0 0.10 0.20 0.18 93 1005.0
20260506001606 51 87 1.0 4.0 0.10 0.20 0.17 93 1005.0
20260506001044 51 81 0.0 2.0 0.09 0.19 0.17 93 1005.0
20260506000543 51 80 1.0 3.0 0.09 0.19 0.17 93 1005.0
20260506000048 51 76 0.0 5.0 0.09 0.18 0.16 93 1005.0
20260505235543 51 71 1.0 5.0 0.09 0.18 0.15 93 1005.1
20260505235044 51 41 1.0 4.0 0.07 0.17 0.13 93 1005.1
20260505234549 51 107 1.0 6.0 0.07 0.16 0.13 93 1005.2
20260505234042 51 113 2.0 6.0 0.06 0.15 0.12 93 1005.2
20260505233543 51 87 2.0 6.0 0.06 0.14 0.11 93 1005.3
20260505233046 52 56 2.0 6.0 0.07 0.13 0.10 93 1005.3
20260505232539 52 72 1.0 8.0 0.08 0.13 0.09 93 1005.4
20260505232039 52 88 2.0 8.0 0.07 0.11 0.08 93 1005.3
20260505231548 52 42 1.0 5.0 0.06 0.10 0.07 93 1005.4
20260505231038 52 77 2.0 5.0 0.06 0.10 0.07 93 1005.3
20260505230537 52 66 1.0 5.0 0.06 0.09 0.06 93 1005.4
20260505230039 52 44 3.0 5.0 0.06 0.09 0.06 93 1005.4
20260505225538 52 48 1.0 4.0 0.06 0.11 0.06 93 1005.4
20260505225036 52 71 1.0 4.0 0.07 0.11 0.06 93 1005.4
20260505224540 52 76 1.0 4.0 0.06 0.10 0.06 93 1005.5
20260505224035 52 119 0.0 4.0 0.06 0.10 0.06 93 1005.5
20260505223534 52 119 1.0 4.0 0.06 0.09 0.05 93 1005.5
20260505223041 52 74 1.0 3.0 0.04 0.08 0.03 93 1005.6
20260505222534 52 89 1.0 5.0 0.02 0.06 0.02 93 1005.6
20260505222033 52 56 2.0 7.0 0.02 0.06 0.01 93 1005.7
20260505221532 52 70 2.0 6.0 0.02 0.06 0.01 93 1005.7
20260505221032 53 100 2.0 6.0 0.02 0.06 0.01 93 1005.6
20260505220530 53 355 3.0 5.0 0.01 0.05 0.00 93 1005.7
20260505220037 53 64 1.0 5.0 0.01 0.05 0.00 93 1005.7
20260505215528 53 93 1.0 5.0 0.00 0.05 0.04 93 1005.8
20260505215030 53 57 1.0 3.0 0.00 0.05 0.04 93 1005.8
20260505214547 53 44 1.0 6.0 0.00 0.05 0.04 93 1005.9
20260505214028 53 89 2.0 6.0 0.00 0.05 0.04 93 1005.9
20260505213530 53 42 2.0 4.0 0.00 0.05 0.04 92 1005.9
20260505213043 53 42 2.0 4.0 0.00 0.05 0.04 92 1006.0
20260505212525 53 69 1.0 6.0 0.00 0.05 0.04 92 1006.0